| time (UTC) | temp F | wind direction | speed MPH | gust MPH | rain 1hr in | rain 24hr in | rain mn in | humidity % | barometer mb |
| 20260904171552 | 95 | 250 | 1.0 | 2.0 | 0.00 | 0.00 | 0.00 | 50 | 1018.2 |
| 20260904170043 | 94 | 0 | 0.0 | 3.0 | 0.00 | 0.00 | 0.00 | 53 | 1018.4 |
| 20260904164553 | 95 | 332 | 1.0 | 4.0 | 0.00 | 0.00 | 0.00 | 53 | 1018.6 |
| 20260904163046 | 94 | 107 | 0.0 | 7.0 | 0.00 | 0.00 | 0.00 | 55 | 1018.8 |
| 20260904161545 | 93 | 254 | 2.0 | 4.0 | 0.00 | 0.00 | 0.00 | 57 | 1018.9 |
| 20260904160050 | 93 | 251 | 0.0 | 2.0 | 0.00 | 0.00 | 0.00 | 60 | 1019.1 |
| 20260904154552 | 92 | 259 | 1.0 | 2.0 | 0.00 | 0.00 | 0.00 | 59 | 1019.1 |
| 20260904153048 | 90 | 284 | 0.0 | 4.0 | 0.00 | 0.00 | 0.00 | 63 | 1019.1 |
| 20260904151546 | 90 | 190 | 1.0 | 2.0 | 0.00 | 0.00 | 0.00 | 64 | 1019.0 |
| 20260904150045 | 89 | 315 | 0.0 | 2.0 | 0.00 | 0.00 | 0.00 | 65 | 1019.2 |
| 20260904144540 | 87 | 303 | 1.0 | 2.0 | 0.00 | 0.00 | 0.00 | 67 | 1019.3 |
| 20260904143048 | 86 | 279 | 0.0 | 2.0 | 0.00 | 0.00 | 0.00 | 72 | 1019.2 |
| 20260904141547 | 85 | 304 | 0.0 | 2.0 | 0.00 | 0.00 | 0.00 | 73 | 1019.4 |
| 20260904140100 | 83 | 344 | 0.0 | 2.0 | 0.00 | 0.00 | 0.00 | 75 | 1019.4 |
| 20260904134543 | 82 | 167 | 0.0 | 2.0 | 0.00 | 0.00 | 0.00 | 79 | 1019.2 |
| 20260904133053 | 80 | 272 | 0.0 | 2.0 | 0.00 | 0.00 | 0.00 | 81 | 1019.2 |
| 20260904131548 | 79 | 207 | 0.0 | 2.0 | 0.00 | 0.00 | 0.00 | 84 | 1019.3 |
| 20260904130050 | 78 | 292 | 0.0 | 2.0 | 0.00 | 0.00 | 0.00 | 85 | 1019.6 |
| 20260904124558 | 77 | 0 | 0.0 | 0.0 | 0.00 | 0.00 | 0.00 | 87 | 1019.4 |
| 20260904123047 | 76 | 0 | 0.0 | 2.0 | 0.00 | 0.00 | 0.00 | 90 | 1019.5 |
| 20260904121547 | 74 | 0 | 0.0 | 0.0 | 0.00 | 0.00 | 0.00 | 93 | 1019.3 |
| 20260904120042 | 73 | 0 | 0.0 | 0.0 | 0.00 | 0.00 | 0.00 | 94 | 1019.3 |
| 20260904114549 | 73 | 0 | 0.0 | 0.0 | 0.00 | 0.00 | 0.00 | 94 | 1019.3 |
| 20260904113042 | 72 | 0 | 0.0 | 0.0 | 0.00 | 0.00 | 0.00 | 94 | 1019.1 |
| 20260904111551 | 72 | 0 | 0.0 | 0.0 | 0.00 | 0.00 | 0.00 | 94 | 1018.9 |
| 20260904110046 | 72 | 0 | 0.0 | 0.0 | 0.00 | 0.00 | 0.00 | 94 | 1018.8 |
| 20260904104542 | 72 | 0 | 0.0 | 0.0 | 0.00 | 0.00 | 0.00 | 93 | 1018.8 |
| 20260904103045 | 72 | 0 | 0.0 | 0.0 | 0.00 | 0.00 | 0.00 | 93 | 1018.6 |
| 20260904101549 | 73 | 0 | 0.0 | 0.0 | 0.00 | 0.00 | 0.00 | 93 | 1018.8 |
| 20260904100045 | 73 | 0 | 0.0 | 0.0 | 0.00 | 0.00 | 0.00 | 93 | 1018.8 |
| 20260904094543 | 73 | 0 | 0.0 | 0.0 | 0.00 | 0.00 | 0.00 | 92 | 1018.7 |
| 20260904093054 | 73 | 0 | 0.0 | 0.0 | 0.00 | 0.00 | 0.00 | 92 | 1018.7 |
| 20260904091545 | 74 | 0 | 0.0 | 0.0 | 0.00 | 0.00 | 0.00 | 91 | 1018.4 |
| 20260904090042 | 74 | 0 | 0.0 | 0.0 | 0.00 | 0.00 | 0.00 | 91 | 1018.1 |
| 20260904084548 | 74 | 0 | 0.0 | 0.0 | 0.00 | 0.00 | 0.00 | 90 | 1017.9 |
| 20260904083046 | 74 | 0 | 0.0 | 0.0 | 0.00 | 0.00 | 0.00 | 90 | 1017.7 |
| 20260904081543 | 75 | 0 | 0.0 | 2.0 | 0.00 | 0.00 | 0.00 | 90 | 1017.6 |
| 20260904080049 | 75 | 0 | 0.0 | 0.0 | 0.00 | 0.00 | 0.00 | 90 | 1017.7 |
| 20260904074550 | 75 | 0 | 0.0 | 0.0 | 0.00 | 0.00 | 0.00 | 90 | 1017.8 |
| 20260904073044 | 75 | 0 | 0.0 | 0.0 | 0.00 | 0.00 | 0.00 | 90 | 1017.8 |
| 20260904071549 | 75 | 234 | 0.0 | 1.0 | 0.00 | 0.00 | 0.00 | 91 | 1018.0 |
| 20260904070048 | 74 | 0 | 0.0 | 0.0 | 0.00 | 0.00 | 0.00 | 91 | 1018.1 |
| 20260904064555 | 75 | 0 | 0.0 | 0.0 | 0.00 | 0.00 | 0.00 | 91 | 1018.4 |
| 20260904063101 | 75 | 0 | 0.0 | 0.0 | 0.00 | 0.00 | 0.00 | 91 | 1018.7 |
| 20260904061549 | 75 | 0 | 0.0 | 0.0 | 0.00 | 0.00 | 0.00 | 90 | 1018.9 |
| 20260904060047 | 75 | 0 | 0.0 | 0.0 | 0.00 | 0.00 | 0.00 | 89 | 1018.9 |
| 20260904054549 | 75 | 0 | 0.0 | 0.0 | 0.00 | 0.00 | 0.00 | 88 | 1019.3 |
| 20260904053045 | 76 | 0 | 0.0 | 0.0 | 0.00 | 0.00 | 0.00 | 88 | 1019.3 |
| 20260904051601 | 76 | 0 | 0.0 | 0.0 | 0.00 | 0.00 | 0.00 | 87 | 1019.3 |
| 20260904050047 | 77 | 0 | 0.0 | 0.0 | 0.00 | 0.00 | 0.00 | 86 | 1019.4 |
| 20260904044554 | 77 | 0 | 0.0 | 0.0 | 0.00 | 0.00 | 0.00 | 85 | 1019.3 |
| 20260904043042 | 77 | 0 | 0.0 | 0.0 | 0.00 | 0.00 | 0.00 | 84 | 1019.5 |
| 20260904041544 | 78 | 0 | 0.0 | 0.0 | 0.00 | 0.00 | 0.00 | 84 | 1019.2 |
| 20260904040045 | 78 | 0 | 0.0 | 0.0 | 0.00 | 0.00 | 0.00 | 83 | 1019.1 |
| 20260904034546 | 79 | 0 | 0.0 | 0.0 | 0.00 | 0.00 | 0.00 | 82 | 1019.2 |
| 20260904033044 | 79 | 0 | 0.0 | 0.0 | 0.00 | 0.00 | 0.00 | 82 | 1019.1 |
| 20260904031541 | 79 | 0 | 0.0 | 0.0 | 0.00 | 0.00 | 0.00 | 81 | 1019.0 |
| 20260904030042 | 79 | 0 | 0.0 | 0.0 | 0.00 | 0.00 | 0.00 | 80 | 1019.2 |
| 20260904024546 | 79 | 0 | 0.0 | 0.0 | 0.00 | 0.00 | 0.00 | 81 | 1019.1 |
| 20260904023042 | 80 | 0 | 0.0 | 0.0 | 0.00 | 0.00 | 0.00 | 80 | 1019.0 |
| 20260904021541 | 80 | 0 | 0.0 | 2.0 | 0.00 | 0.00 | 0.00 | 80 | 1019.2 |
| 20260904020049 | 80 | 0 | 0.0 | 0.0 | 0.00 | 0.00 | 0.00 | 80 | 1019.2 |
| 20260904014602 | 81 | 0 | 0.0 | 0.0 | 0.00 | 0.00 | 0.00 | 77 | 1019.3 |
| 20260904013040 | 81 | 0 | 0.0 | 0.0 | 0.00 | 0.00 | 0.00 | 77 | 1019.1 |
| 20260904011549 | 81 | 0 | 0.0 | 0.0 | 0.00 | 0.00 | 0.00 | 78 | 1018.8 |
| 20260904004543 | 82 | 0 | 0.0 | 0.0 | 0.00 | 0.00 | 0.00 | 75 | 1018.4 |
| 20260904003051 | 83 | 0 | 0.0 | 0.0 | 0.00 | 0.00 | 0.00 | 71 | 1018.3 |
| 20260904001548 | 84 | 0 | 0.0 | 0.0 | 0.00 | 0.00 | 0.00 | 70 | 1018.1 |
| 20260904000054 | 84 | 0 | 0.0 | 1.0 | 0.00 | 0.00 | 0.00 | 68 | 1017.7 |
| 20260903234553 | 85 | 0 | 0.0 | 2.0 | 0.00 | 0.00 | 0.00 | 68 | 1017.7 |
| 20260903233059 | 87 | 0 | 0.0 | 2.0 | 0.00 | 0.00 | 0.00 | 66 | 1017.7 |
| 20260903231550 | 88 | 0 | 0.0 | 0.0 | 0.00 | 0.00 | 0.00 | 62 | 1017.6 |
| 20260903230047 | 90 | 0 | 0.0 | 2.0 | 0.00 | 0.00 | 0.00 | 57 | 1017.6 |
| 20260903224542 | 91 | 283 | 0.0 | 2.0 | 0.00 | 0.00 | 0.00 | 55 | 1017.5 |
| 20260903223052 | 92 | 320 | 0.0 | 2.0 | 0.00 | 0.00 | 0.00 | 53 | 1017.6 |
| 20260903221547 | 93 | 0 | 0.0 | 2.0 | 0.00 | 0.00 | 0.00 | 52 | 1017.7 |
| 20260903220052 | 93 | 248 | 1.0 | 2.0 | 0.00 | 0.00 | 0.00 | 49 | 1017.6 |
| 20260903214544 | 94 | 250 | 1.0 | 5.0 | 0.00 | 0.00 | 0.00 | 50 | 1017.7 |
| 20260903213055 | 94 | 248 | 1.0 | 3.0 | 0.00 | 0.00 | 0.00 | 47 | 1017.7 |
| 20260903211547 | 94 | 246 | 1.0 | 6.0 | 0.00 | 0.00 | 0.00 | 48 | 1017.7 |
| 20260903210104 | 94 | 0 | 0.0 | 2.0 | 0.00 | 0.00 | 0.00 | 47 | 1017.9 |
| 20260903204602 | 95 | 245 | 1.0 | 7.0 | 0.00 | 0.00 | 0.00 | 48 | 1018.0 |
| 20260903203053 | 94 | 321 | 0.0 | 2.0 | 0.00 | 0.00 | 0.00 | 48 | 1018.1 |
| 20260903201551 | 93 | 316 | 0.0 | 2.0 | 0.00 | 0.00 | 0.00 | 54 | 1018.3 |
| 20260903200053 | 94 | 277 | 0.0 | 4.0 | 0.00 | 0.00 | 0.00 | 50 | 1018.5 |
| 20260903194545 | 94 | 202 | 0.0 | 1.0 | 0.00 | 0.00 | 0.00 | 50 | 1018.5 |